This is the latest recevied weather packets stored in our database for station/object N5DGC. If no packets are shown the sender has not sent any weather packets the latest 10 day(s).
| Time | Temp. | Humidity | Pressure | Rain* | Wind** | Luminosity | Snow |
|---|---|---|---|---|---|---|---|
| 1777845606 | 24.44° C | 21% | 1235.5 hPa | 0 mm | - | 701 W/m² | - |
| 1777845303 | 24.44° C | 22% | 1235.4 hPa | 0 mm | - | 711 W/m² | - |
| 1777845000 | 24.44° C | 20% | 1235.5 hPa | 0 mm | - | 725 W/m² | - |
| 1777844698 | 25° C | 20% | 1235.5 hPa | 0 mm | - | 742 W/m² | - |
| 1777844394 | 24.44° C | 22% | 1235.8 hPa | 0 mm | - | 754 W/m² | - |
| 1777844093 | 23.89° C | 21% | 1235.8 hPa | 0 mm | - | 762 W/m² | - |
| 1777843789 | 23.89° C | 23% | 1236.1 hPa | 0 mm | - | 775 W/m² | - |
| 1777843487 | 23.89° C | 23% | 1236.1 hPa | 0 mm | - | 792 W/m² | - |
| 1777843184 | 24.44° C | 22% | 1236.2 hPa | 0 mm | - | 802 W/m² | - |
| 1777842881 | 23.89° C | 22% | 1236.1 hPa | 0 mm | - | 822 W/m² | - |
| 1777842576 | 23.89° C | 23% | 1236.5 hPa | 0 mm | - | 844 W/m² | - |
| 1777842273 | 23.33° C | 22% | 1236.5 hPa | 0 mm | - | 865 W/m² | - |
| 1777841968 | 23.33° C | 23% | 1236.6 hPa | 0 mm | - | 879 W/m² | - |
| 1777841665 | 23.33° C | 23% | 1236.7 hPa | 0 mm | - | 893 W/m² | - |
| 1777841361 | 23.89° C | 22% | 1236.8 hPa | 0 mm | - | 906 W/m² | - |
| 1777841059 | 23.33° C | 23% | 1236.8 hPa | 0 mm | - | 917 W/m² | - |
| 1777840756 | 23.33° C | 24% | 1237.2 hPa | 0 mm | - | 927 W/m² | - |
| 1777840453 | 22.78° C | 25% | 1237.2 hPa | 0 mm | - | 935 W/m² | - |
| 1777840150 | 22.78° C | 25% | 1237.5 hPa | 0 mm | - | 944 W/m² | - |
| 1777839848 | 22.22° C | 26% | 1237.4 hPa | 0 mm | - | 950 W/m² | - |
| 1777839546 | 22.22° C | 26% | 1237.4 hPa | 0 mm | - | 956 W/m² | - |
| 1777839243 | 22.22° C | 26% | 1237.6 hPa | 0 mm | - | 959 W/m² | - |
| 1777838941 | 21.67° C | 28% | 1237.5 hPa | 0 mm | - | 962 W/m² | - |
| 1777838636 | 21.11° C | 27% | 1237.9 hPa | 0 mm | - | 952 W/m² | - |
| 1777838334 | 21.67° C | 28% | 1237.7 hPa | 0 mm | - | 980 W/m² | - |
* Rain latest hour (hover to see other rain measurements)
** Current wind speed in m/s (hover to see current wind gust speed)